• In Hungary
  • List of Countries
  • For 7 days
  • Water Temperature
  • Satellite Maps
  • Weather Map
  • News
  • Weather Widgets
  • user-avatar
    Login

    Hourly Weather Saroy

    Today, 18 October, Thursday

    Time Temperature Precipitation Wind Pressure Humidity
    00:00 +7°C° 0 mm 1 mps 717 mmHg 46%
    01:00 +7°C° 0 mm 1 mps 717 mmHg 46%
    02:00 +7°C° 0 mm 1 mps 716 mmHg 45%
    03:00 +7°C° 0 mm 1 mps 716 mmHg 45%
    04:00 +6°C° 0 mm 1 mps 716 mmHg 45%
    05:00 +7°C° 0 mm 1 mps 716 mmHg 43%
    06:00 +8°C° 0 mm 1 mps 716 mmHg 42%
    07:00 +9°C° 0 mm 1 mps 716 mmHg 40%
    08:00 +10°C° 0 mm 1 mps 716 mmHg 36%
    09:00 +12°C° 0 mm 1 mps 716 mmHg 32%
    10:00 +13°C° 0 mm 2 mps 716 mmHg 29%
    11:00 +14°C° 0 mm 2 mps 716 mmHg 29%
    12:00 +15°C° 0 mm 2 mps 715 mmHg 28%
    13:00 +14°C° 0 mm 3 mps 715 mmHg 27%
    14:00 +15°C° 0 mm 2 mps 715 mmHg 28%
    15:00 +14°C° 0 mm 2 mps 714 mmHg 29%
    16:00 +14°C° 0 mm 2 mps 714 mmHg 31%
    17:00 +13°C° 0 mm 2 mps 714 mmHg 33%
    18:00 +12°C° 0 mm 1 mps 714 mmHg 35%
    19:00 +11°C° 0 mm 1 mps 715 mmHg 37%
    20:00 +10°C° 0 mm 1 mps 715 mmHg 37%
    21:00 +10°C° 0 mm 1 mps 715 mmHg 38%
    22:00 +10°C° 0 mm 1 mps 715 mmHg 38%
    23:00 +10°C° 0 mm 1 mps 715 mmHg 38%

    Tomorrow, 19 October, Friday

    Time Temperature Precipitation Wind Pressure Humidity
    00:00 +9°C° 0 mm 1 mps 715 mmHg 39%
    01:00 +9°C° 0 mm 1 mps 715 mmHg 39%
    02:00 +9°C° 0 mm 1 mps 715 mmHg 40%
    03:00 +9°C° 0 mm 1 mps 715 mmHg 40%
    04:00 +9°C° 0 mm 1 mps 715 mmHg 41%
    05:00 +9°C° 0 mm 1 mps 716 mmHg 40%
    06:00 +10°C° 0 mm 1 mps 716 mmHg 40%
    07:00 +11°C° 0 mm 1 mps 716 mmHg 39%
    08:00 +12°C° 0 mm 1 mps 716 mmHg 36%
    09:00 +14°C° 0 mm 1 mps 717 mmHg 33%
    10:00 +15°C° 0 mm 2 mps 717 mmHg 29%
    11:00 +16°C° 0 mm 2 mps 717 mmHg 28%
    12:00 +17°C° 0 mm 2 mps 717 mmHg 28%
    13:00 +17°C° 0 mm 2 mps 717 mmHg 27%
    14:00 +17°C° 0 mm 2 mps 716 mmHg 27%
    15:00 +17°C° 0 mm 2 mps 716 mmHg 28%
    16:00 +16°C° 0 mm 2 mps 716 mmHg 29%
    17:00 +15°C° 0 mm 1 mps 716 mmHg 30%
    18:00 +14°C° 0 mm 1 mps 716 mmHg 31%
    19:00 +13°C° 0 mm 1 mps 716 mmHg 33%
    20:00 +12°C° 0 mm 1 mps 716 mmHg 33%
    21:00 +12°C° 0 mm 1 mps 716 mmHg 34%
    22:00 +12°C° 0 mm 1 mps 716 mmHg 34%
    23:00 +12°C° 0 mm 1 mps 716 mmHg 35%

    Day after tomorrow, 20 October, Saturday

    Time Temperature Precipitation Wind Pressure Humidity
    00:00 +11°C° 0 mm 1 mps 716 mmHg 36%
    01:00 +11°C° 0 mm 1 mps 716 mmHg 37%
    02:00 +11°C° 0 mm 1 mps 716 mmHg 37%
    03:00 +11°C° 0 mm 1 mps 715 mmHg 38%
    04:00 +11°C° 0 mm 1 mps 715 mmHg 38%
    05:00 +11°C° 0 mm 1 mps 715 mmHg 38%
    06:00 +12°C° 0 mm 1 mps 716 mmHg 37%
    07:00 +13°C° 0 mm 1 mps 716 mmHg 37%
    08:00 +14°C° 0 mm 1 mps 716 mmHg 33%
    09:00 +16°C° 0 mm 1 mps 716 mmHg 30%
    10:00 +19°C° 0 mm 1 mps 717 mmHg 26%
    11:00 +20°C° 0 mm 1 mps 716 mmHg 25%
    12:00 +20°C° 0 mm 1 mps 716 mmHg 25%
    13:00 +20°C° 0 mm 2 mps 716 mmHg 24%
    14:00 +19°C° 0 mm 2 mps 716 mmHg 25%
    15:00 +20°C° 0 mm 1 mps 715 mmHg 26%
    16:00 +20°C° 0 mm 1 mps 715 mmHg 27%
    17:00 +18°C° 0 mm 1 mps 715 mmHg 29%
    18:00 +16°C° 0 mm 2 mps 715 mmHg 31%
    19:00 +15°C° 0 mm 2 mps 715 mmHg 33%
    20:00 +14°C° 0 mm 2 mps 715 mmHg 34%
    21:00 +14°C° 0 mm 2 mps 715 mmHg 34%
    22:00 +14°C° 0 mm 2 mps 715 mmHg 35%
    23:00 +14°C° 0 mm 2 mps 715 mmHg 35%

    21 October, Sunday

    Time Temperature Precipitation Wind Pressure Humidity
    00:00 +13°C° 0 mm 2 mps 715 mmHg 35%
    01:00 +13°C° 0 mm 1 mps 715 mmHg 35%
    02:00 +13°C° 0 mm 1 mps 715 mmHg 35%
    03:00 +13°C° 0 mm 1 mps 714 mmHg 34%
    04:00 +13°C° 0 mm 1 mps 714 mmHg 34%
    05:00 +13°C° 0 mm 1 mps 715 mmHg 33%
    06:00 +14°C° 0 mm 1 mps 715 mmHg 32%
    07:00 +14°C° 0 mm 1 mps 715 mmHg 32%
    08:00 +16°C° 0 mm 1 mps 715 mmHg 29%
    09:00 +19°C° 0 mm 1 mps 715 mmHg 26%
    10:00 +21°C° 0 mm 1 mps 716 mmHg 23%
    11:00 +22°C° 0 mm 1 mps 715 mmHg 22%
    12:00 +23°C° 0 mm 1 mps 715 mmHg 21%
    13:00 +23°C° 0 mm 2 mps 715 mmHg 20%
    14:00 +23°C° 0 mm 1 mps 714 mmHg 22%
    15:00 +22°C° 0 mm 1 mps 714 mmHg 23%
    16:00 +22°C° 0 mm 1 mps 714 mmHg 24%
    17:00 +20°C° 0 mm 1 mps 714 mmHg 25%
    18:00 +19°C° 0 mm 1 mps 714 mmHg 26%
    19:00 +17°C° 0 mm 2 mps 714 mmHg 28%
    20:00 +17°C° 0 mm 2 mps 714 mmHg 28%
    21:00 +16°C° 0 mm 2 mps 714 mmHg 28%
    22:00 +16°C° 0 mm 2 mps 714 mmHg 28%
    23:00 +16°C° 0 mm 2 mps 714 mmHg 28%

    22 October, Monday

    Time Temperature Precipitation Wind Pressure Humidity
    00:00 +16°C° 0 mm 2 mps 713 mmHg 28%
    01:00 +15°C° 0 mm 2 mps 713 mmHg 27%
    02:00 +15°C° 0 mm 2 mps 713 mmHg 27%
    03:00 +15°C° 0 mm 2 mps 713 mmHg 26%
    04:00 +15°C° 0 mm 2 mps 713 mmHg 26%
    05:00 +15°C° 0 mm 2 mps 713 mmHg 25%
    06:00 +16°C° 0 mm 2 mps 713 mmHg 25%
    07:00 +16°C° 0 mm 2 mps 713 mmHg 24%
    08:00 +18°C° 0 mm 2 mps 713 mmHg 21%
    09:00 +22°C° 0 mm 1 mps 714 mmHg 19%
    10:00 +24°C° 0 mm 1 mps 714 mmHg 16%
    11:00 +24°C° 0 mm 1 mps 713 mmHg 15%
    12:00 +25°C° 0 mm 1 mps 713 mmHg 14%
    13:00 +25°C° 0 mm 2 mps 713 mmHg 14%
    14:00 +25°C° 0 mm 1 mps 713 mmHg 15%
    15:00 +24°C° 0 mm 1 mps 712 mmHg 17%
    16:00 +23°C° 0 mm 1 mps 712 mmHg 19%
    17:00 +22°C° 0 mm 1 mps 712 mmHg 19%
    18:00 +20°C° 0 mm 2 mps 712 mmHg 20%
    19:00 +18°C° 0 mm 2 mps 712 mmHg 21%
    20:00 +18°C° 0 mm 2 mps 712 mmHg 21%
    21:00 +18°C° 0 mm 2 mps 712 mmHg 22%
    22:00 +17°C° 0 mm 2 mps 712 mmHg 22%
    23:00 +17°C° 0 mm 2 mps 712 mmHg 22%

    23 October, Tuesday

    Time Temperature Precipitation Wind Pressure Humidity
    00:00 +17°C° 0 mm 2 mps 711 mmHg 22%
    01:00 +16°C° 0 mm 2 mps 711 mmHg 22%
    02:00 +16°C° 0 mm 2 mps 711 mmHg 22%
    03:00 +16°C° 0 mm 2 mps 711 mmHg 21%
    04:00 +16°C° 0 mm 2 mps 711 mmHg 21%
    05:00 +16°C° 0 mm 2 mps 712 mmHg 20%
    06:00 +17°C° 0 mm 2 mps 712 mmHg 20%
    07:00 +17°C° 0 mm 2 mps 712 mmHg 20%
    08:00 +19°C° 0 mm 2 mps 712 mmHg 17%
    09:00 +22°C° 0 mm 1 mps 713 mmHg 14%
    10:00 +24°C° 0 mm 1 mps 713 mmHg 12%
    11:00 +25°C° 0 mm 1 mps 713 mmHg 11%
    12:00 +25°C° 0 mm 1 mps 712 mmHg 11%
    13:00 +26°C° 0 mm 1 mps 712 mmHg 11%
    14:00 +25°C° 0 mm 1 mps 712 mmHg 13%
    15:00 +24°C° 0 mm 1 mps 712 mmHg 15%
    16:00 +23°C° 0 mm 1 mps 712 mmHg 17%
    17:00 +22°C° 0 mm 1 mps 712 mmHg 17%
    18:00 +20°C° 0 mm 2 mps 712 mmHg 17%
    19:00 +20°C° 0 mm 2 mps 712 mmHg 18%
    20:00 +19°C° 0 mm 2 mps 712 mmHg 18%
    21:00 +19°C° 0 mm 2 mps 712 mmHg 18%
    22:00 +19°C° 0 mm 2 mps 712 mmHg 18%
    23:00 +19°C° 0 mm 2 mps 712 mmHg 18%
    Show more